Location: Avully
(45.9633°N, 6.0228°E)
Time: 11:40:35
(UTC+00:00)

SJ 16-02 - Pass Details

Date: 23 May 2024
Orbit: 594 x 605 km, 75.0° (Epoch: 14 June)

Event Time Altitude Azimuth Distance (km) Brightness Sun altitude
Exits shadow 01:40:15 23° 163° (SSE) 1,265 2.6 -17.4°
Maximum altitude 01:42:30 44° 104° (ESE) 826 2.1 -17.2°
Drops below altitude 10° 01:46:36 10° 32° (NNE) 1,938 5.2 -16.8°
Sets 01:48:54 0° 26° (NNE) 2,845 6.5 -16.6°
